Weather History for Salinas, CA

Change the Weather History Date:

Tuesday, February 26, 2013

  Actual Average Record
Temperature  
Mean Temperature 51 °F 54 °F  
Max Temperature 68 °F 64 °F 83 °F (1992)
Min Temperature 33 °F 44 °F 28 °F (1971)
Degree Days  
Heating Degree Days 14 11  
Month to date heating degree days 380 314  
Since 1 July heating degree days 1730 1792  
Moisture  
Dew Point 38 °F    
Average Humidity 60    
Maximum Humidity 100    
Minimum Humidity 20    
Precipitation  
Precipitation 0.00 in 0.09 in 0.71 in (2014)
Month to date precipitation 0.56 2.32  
Year to date precipitation 1.60 4.92  
Since 1 July precipitation 8.24 9.03  
Sea Level Pressure  
Sea Level Pressure 30.19 in    
Wind  
Wind Speed 5 mph (NW)    
Max Wind Speed 17 mph    
Max Gust Speed 20 mph    
Visibility 5 miles    
Events Fog    
T = Trace of Precipitation, MM = Missing Value Source: NWS Daily Summary

Daily Weather History Graph

Daily Weather History Graph

Search for Another Location

Airport:

Trip Planner

Search our weather history database for the weather conditions in past years. The results will help you decide how hot, cold, wet, or windy it might be!

Date:

Astronomy

Feb. 26, 2013 Rise Set
Actual Time 6:40 AM PST 5:58 PM PST
Civil Twilight 6:14 AM PST 6:24 PM PST
Nautical Twilight 5:44 AM PST 6:54 PM PST
Astronomical Twilight 5:14 AM PST 7:24 PM PST
Moon 7:17 PM PST (2/26) 6:48 AM PST (2/26)
Length of Visible Light 12h 09m
Length of Day
11h 17m
Full, 99% of the Moon is Illuminated
Feb 26
Full
Mar 4
Last Quarter
Mar 11
New
Mar 19
First Quarter
Mar 27
Full

Hourly Weather History & Observations

Time (PST) Temp. Windchill Dew Point Humidity Pressure Visibility Wind Dir Wind Speed Gust Speed Precip Events Conditions
12:05 AM 44.6 °F 43.1 °F 39.2 °F 81% 30.21 in 7.0 mi West 3.5 mph - N/A   Scattered Clouds
12:10 AM 44.6 °F - 42.8 °F 93% 30.21 in 2.0 mi Calm Calm - N/A   Mostly Cloudy
12:13 AM 44.6 °F 43.1 °F 42.8 °F 93% 30.21 in 1.0 mi WNW 3.5 mph - N/A   Mist
12:19 AM 44.6 °F 43.1 °F 42.8 °F 93% 30.21 in 0.2 mi NNW 3.5 mph - N/A Fog Fog
12:53 AM 44.1 °F 40.8 °F 43.0 °F 96% 30.22 in 0.2 mi NNW 5.8 mph - N/A Fog Fog
1:17 AM 44.6 °F 43.1 °F 42.8 °F 93% 30.19 in 0.5 mi North 3.5 mph - N/A Fog Fog
1:28 AM 44.6 °F 42.2 °F 42.8 °F 93% 30.20 in 1.5 mi North 4.6 mph - N/A   Overcast
1:44 AM 42.8 °F - 42.8 °F 100% 30.19 in 0.5 mi Calm Calm - N/A Fog Fog
1:53 AM 43.0 °F - 42.1 °F 97% 30.22 in 0.2 mi Calm Calm - N/A Fog Fog
2:20 AM 42.8 °F - 42.8 °F 100% 30.19 in 0.5 mi Calm Calm - N/A Fog Fog
2:34 AM 42.8 °F - 41.0 °F 93% 30.18 in 2.0 mi Calm Calm - N/A   Overcast
2:42 AM 41.0 °F - 41.0 °F 100% 30.18 in 4.0 mi Calm Calm - N/A   Mostly Cloudy
2:53 AM 42.1 °F - 41.0 °F 96% 30.20 in 2.0 mi Calm Calm - N/A   Scattered Clouds
2:56 AM 41.0 °F - 39.2 °F 93% 30.17 in 1.0 mi Calm Calm - N/A   Mist
2:59 AM 39.2 °F - 39.2 °F 100% 30.17 in 0.8 mi Calm Calm - N/A   Mist
3:11 AM 39.2 °F - 37.4 °F 93% 30.17 in 0.2 mi Calm Calm - N/A Fog Fog
3:53 AM 37.0 °F - 36.0 °F 96% 30.19 in 0.2 mi Calm Calm - N/A Fog Fog
4:12 AM 37.4 °F - 37.4 °F 100% 30.16 in 0.2 mi Calm Calm - N/A Fog Fog
4:53 AM 36.0 °F - 36.0 °F 100% 30.19 in 0.2 mi Calm Calm - N/A Fog Fog
5:23 AM 35.6 °F - 35.6 °F 100% 30.16 in 0.2 mi Calm Calm - N/A Fog Fog
5:36 AM 35.6 °F - 35.6 °F 100% 30.16 in 0.5 mi Calm Calm - N/A Fog Fog
5:53 AM 34.0 °F 31.0 °F 34.0 °F 100% 30.19 in 0.8 mi East 3.5 mph - N/A   Mist
6:00 AM 33.8 °F - 33.8 °F 100% 30.16 in 1.0 mi Calm Calm - N/A   Mist
6:11 AM 35.6 °F - 33.8 °F 93% 30.17 in 8.0 mi Calm Calm - N/A   Scattered Clouds
6:53 AM 34.0 °F - 33.1 °F 96% 30.22 in 8.0 mi Calm Calm - N/A   Clear
7:53 AM 36.0 °F 31.1 °F 35.1 °F 97% 30.22 in 9.0 mi SE 5.8 mph - N/A   Clear
8:53 AM 44.1 °F 42.5 °F 39.9 °F 85% 30.22 in 10.0 mi ESE 3.5 mph - N/A   Clear
9:53 AM 52.0 °F - 41.0 °F 66% 30.21 in 10.0 mi Variable 3.5 mph - N/A   Clear
10:53 AM 59.0 °F - 36.0 °F 42% 30.21 in 10.0 mi WNW 4.6 mph - N/A   Clear
11:53 AM 63.0 °F - 28.9 °F 28% 30.19 in 10.0 mi WNW 3.5 mph - N/A   Clear
12:53 PM 66.0 °F - 24.1 °F 20% 30.17 in 10.0 mi NW 9.2 mph - N/A   Clear
1:53 PM 66.9 °F - 30.9 °F 26% 30.14 in 10.0 mi West 9.2 mph 18.4 mph N/A   Clear
2:53 PM 66.0 °F - 33.1 °F 29% 30.14 in 10.0 mi West 13.8 mph - N/A   Clear
3:53 PM 64.0 °F - 32.0 °F 30% 30.14 in 10.0 mi West 11.5 mph - N/A   Clear
4:53 PM 60.1 °F - 39.9 °F 47% 30.15 in 10.0 mi West 10.4 mph - N/A   Clear
5:53 PM 54.0 °F - 42.1 °F 64% 30.18 in 10.0 mi West 8.1 mph - N/A   Clear
6:53 PM 52.0 °F - 41.0 °F 66% 30.19 in 10.0 mi WNW 4.6 mph - N/A   Clear
7:53 PM 51.1 °F - 41.0 °F 68% 30.21 in 10.0 mi NW 4.6 mph - N/A   Clear
8:53 PM 48.9 °F - 41.0 °F 74% 30.22 in 10.0 mi NW 4.6 mph - N/A   Clear
9:53 PM 48.0 °F - 37.9 °F 68% 30.23 in 10.0 mi North 4.6 mph - N/A   Clear
10:53 PM 43.0 °F - 35.1 °F 74% 30.24 in 10.0 mi Calm Calm - N/A   Clear